Regional Weather Roundup
Issued by NWS San Diego, CA

Home | Current Version | Previous Version | Text Only | Print | Product List | Glossary On
Versions: 1 2 3 4 5 6 7 8 9 10 11 12 13 14 15 16 17 18 19 20 21 22 23 24 25 26 27 28 29 30 31 32 33 34 35 36 37 38 39 40 41 42 43 44 45 46 47 48 49 50
000
ASUS46 KSGX 290710
RWRSGX

SAN DIEGO HOURLY WEATHER ROUNDUP
NATIONAL WEATHER SERVICE SAN DIEGO CA
1100 PM PST SUN DEC 28 2014

NOTE: "FAIR" INDICATES FEW OR NO CLOUDS BELOW 12,000 FEET WITH NO
SIGNIFICANT WEATHER AND/OR OBSTRUCTIONS TO VISIBILITY.

CAZ042-043-060-061-PZZ750-775-290800-

GREATER SAN DIEGO AREA

CITY           SKY/WX    TMP DP  RH WIND       PRES   REMARKS
LINDBERGH FLD  PTCLDY    52  36  54 CALM      30.21S
POINT LOMA       N/A     52  40  63 E3          N/A
NATIONAL CITY    N/A     49  38  66 CALM      30.20F
CHULA VISTA      N/A     46  39  74 CALM      30.13F
IMPERIAL BEACH CLEAR     48  38  68 E8        30.20S
BROWN FIELD    CLEAR     46  35  65 CALM      30.19S
MIRAMAR MCAS   PTCLDY    47  35  63 E6        30.18F
MONTGOMERY FLD CLEAR     49  35  58 CALM      30.19F

$$

NORTH SAN DIEGO COUNTY

CITY           SKY/WX    TMP DP  RH WIND       PRES   REMARKS
CAMP PENDLETON CLEAR     42  34  73 N3        30.20F
OCEANSIDE AP   PTCLDY    38  35  89 CALM      30.19F
OCEANSIDE HBR    N/A     46  40  79 NE6       30.22F
CARLSBAD       CLEAR     50  36  58 E7        30.18F
DEL MAR          N/A     49  39  69 CALM      30.22S
LA JOLLA SCRIP   N/A     51  39  62 CALM      30.17F
ESCONDIDO        N/A     44  35  71 CALM      30.22F
SAN MARCOS       N/A     48  38  67 E1        30.19F
POWAY            N/A     40  36  84 CALM      30.23F

$$

EAST SAN DIEGO COUNTY

CITY           SKY/WX    TMP DP  RH WIND       PRES   REMARKS
RAMONA         CLEAR     33  31  92 CALM      30.18F
SANTEE LAKES     N/A     40  37  86 CALM      30.23F
JAMUL            N/A     40  33  76 CALM      30.21F
DESCANSO N       N/A     32  24  72 E3        30.15F
MT. LAGUNA OBS   N/A     43  15  32 N10       29.70F
CAMPO            N/A     29  22  75 NE5       30.13F WCI  24

$$

ORANGE COUNTY AND THE LOS ANGELES BASIN

CITY           SKY/WX    TMP DP  RH WIND       PRES   REMARKS
JOHN WAYNE AP  PTCLDY    52  36  54 NE5       30.18F
LAGUNA BEACH     N/A     45  39  78 N3        30.14F
LAKE FOREST FR   N/A     45  31  56 NE3       30.09F
SANTA ANA        N/A     45  37  74 CALM      30.14F
HUNTINGTON BCH   N/A     45  40  85 NW1       30.20F
LOS ALAMITOS   FAIR      47  39  73 NE5       30.19F
FULLERTON      CLEAR     46  37  71 E3        30.18F
LONG BEACH     CLEAR     49  40  71 CALM      30.19F
L.A. AP        CLEAR     52  40  63 VRB5      30.19F
L.A. DOWNTOWN  CLEAR     47  39  74 CALM      30.19S

$$

THE INLAND EMPIRE

CITY           SKY/WX    TMP DP  RH WIND       PRES   REMARKS
CORONA         CLEAR     38  31  76 CALM      30.20F
CHINO          CLEAR     44  36  73 NE3       30.20F
ONTARIO        PTCLDY    44  30  57 CALM      30.18F
RIVERSIDE AP   CLEAR     43  33  68 CALM      30.19F
MARCH ARB      CLEAR     36  29  75 CALM      30.18F
HORSETHIEF CYN   N/A     41  22  47 S1        30.22F
FRENCH VALLEY  FAIR      39  34  81 CALM      30.19F

$$

SAN BERNARDINO AND RIVERSIDE COUNTY MOUNTAINS

CITY           SKY/WX    TMP DP  RH WIND       PRES   REMARKS
BIG BEAR AP    CLEAR     32  19  59 W6        30.16S WCI  26
PINE COVE        N/A     38  23  54 N3        30.16F

$$

SOUTHERN DESERT INCLUDING THE COACHELLA VALLEY

CITY           SKY/WX    TMP DP  RH WIND       PRES   REMARKS
PALM SPRINGS   CLEAR     44  22  41 NW5       30.17F
PALM DESERT      N/A     40  27  59 CALM      28.06
THERMAL        CLEAR     31  18  58 CALM      30.15F
BLYTHE         CLEAR     38  19  46 CALM      30.15F
IMPERIAL AP    CLEAR     38  21  50 SW3       30.16F
EL CENTRO NAS  CLEAR     39  17  41 W5        30.16F
YUMA AZ        CLEAR     44  19  36 CALM      30.15F

$$

UPPER DESERT

CITY           SKY/WX    TMP DP  RH WIND       PRES   REMARKS
VICTORVILLE AP   N/A     37  19  48 S7        30.12F WCI  32
HESPERIA         N/A     43  20  40 W7        30.36S
PALMDALE       CLEAR     41  25  53 SW9       30.14F
LANCASTER      CLEAR     46  19  34 W18       30.14F
EDWARDS AFB    CLEAR     39  21  48 SW10      30.10F WCI  32
DAGGETT        CLEAR     34  15  46 W6        30.14S WCI  29
29 PALMS N     CLEAR     34  10  37 W3        30.20F
NEEDLES        CLEAR     40  13  33 W5        30.15S

$$

REGIONAL REPORTS

CITY           SKY/WX    TMP DP  RH WIND       PRES   REMARKS
SANTA BARBARA  CLEAR     42  38  85 CALM      30.18S
SANDBERG       CLEAR     44  20  38 NW28      30.17S
MT. WILSON       N/A     37  18  44 N6G18       N/A  WCI  33
LAS VEGAS NV   CLEAR     36  13  38 SW7       30.08F WCI  30
PHOENIX AZ     CLEAR     44  26  49 E5        30.13F
TIJUANA        PTCLDY    48  32  53 CALM      30.21F
ENSENADA NW      N/A     51  32  48 NE2       30.17F

$$

OFFSHORE ISLANDS

CITY           SKY/WX    TMP DP  RH WIND       PRES   REMARKS
CATALINA ARPT  CLEAR     49  44  83 CALM      30.18F
SAN NICOLAS IS CLEAR    N/A N/A N/A NW14      30.17F

$$

MARINE AND OFFSHORE BUOY REPORTS

STATION/POSITION SKY/WX   TEMP    WIND        PRES    SWELL
                          AIR SEA DIR/SP/G            HT/PER/DIR
                          (F)     (DEG/KT/KT) (MB)    (FT/S/D)
TANNER BANKS               59 63  320/ 16/ 17 1022.2F   5/290/15
S CLEMENTE BASIN           60 64  320/  8/ 10 1022.1F   2/280/14
SAN NICOLAS IS.               62                N/A     3/300/14
SO. S. ROSA ISLA           59 59  320/ 17/ 21 1021.3F   3/15
W. S. BARBARA CH           59 62  320/ 19/ 23 1021.1F   5/300/14
S. MONICA BASIN            58 63  350/  6/  6 1022.2F   2/190/14
S PEDRO CHANNEL               63                N/A     2/210/14
DANA POINT                    63                N/A     2/220/13
CMP PENDLETON NS              63                N/A     2/220/14
OCEANSIDE OFFSHR              63                N/A     2/230/13
TORREY PINES OTR              64                N/A     2/270/13
LA JOLLA 1                 53 62   90/ 10/ 11 1022.3F
MISSION BAY BUOY              64                N/A     2/260/15
SAN DIEGO BAY                 63              1022.9S
POINT LOMA SOUTH              64                N/A     2/210/13

$$



USA.gov is the U.S. government's official web portal to all federal, state and local government web resources and services.